Lemhi County Airport
KSMN : now visible

Airfield :











YOU CAN JOIN US ON...

 
LOGIN :

Register | Disclaimer

   EN    FR    IT 

 









Legend :    VFR   Marginal VFR   IFR   Intensive IFR   Very Intensive IFR
Visi :
Ceiling :
>= 8 km
>= 3000ft
5 to 8 km
1000 to 3000 ft
1500m to 5 km
500 to 1000 ft
800 to 1500m
200 to 500 ft
< 800m
< 200 ft
Symbols :   Thunderstorms  Fog  Heavy snow  Heavy precipitations  Wind > 20 kt






- Airport Elevation : 4043 ft


KSMN - Lemhi County

CURRENT METAR :
  • 021356Z AUTO 00000KT 10SM CLR M20/M22 A3047 RMK AO2 SLP001 T12001222 FZRANO

EXPIRED METARs :
  • 021256Z AUTO 00000KT 10SM CLR M20/M22 A3046 RMK AO2 SLP998 T12001222 FZRANO
  • 021156Z AUTO 00000KT 10SM CLR M19/M21 A3044 RMK AO2 SLP991 T11941211 11144 21194 51011 FZRANO

TAF KSMN
Valid from the 02 at 12:00 until the 03 at 12:00 UTC


021120Z 0212/0312 00000KT P6SM SKC
KZLC FIR / North America



MET'MAP, your aeronautical weather chart ! - Copyright ORBIFLY December 2007 - Disclaimer

ORBIFLY MET'MAP TEAM :

Programming & Development : Alexandra Zaïnal
Original concept : Baudouin d'Aumeries
Technical & hardware support : Manuel Goepfert
Assistance : Marc-Olivier Méhu




SOURCES & CREDITS :

   NOAA       Earth
Advisory